| time (UTC) | temp F | wind direction | speed MPH | gust MPH | rain 1hr in | rain 24hr in | rain mn in | humidity % | barometer mb |
| 20260510174537 | 46 | 30 | 10.0 | 25.0 | 0.00 | 0.08 | 0.00 | 56 | 1015.0 |
| 20260510173043 | 46 | 302 | 8.0 | 25.0 | 0.00 | 0.08 | 0.00 | 61 | 1015.0 |
| 20260510171542 | 45 | 277 | 11.0 | 21.0 | 0.00 | 0.08 | 0.00 | 59 | 1014.9 |
| 20260510170043 | 46 | 284 | 12.0 | 22.0 | 0.00 | 0.08 | 0.00 | 62 | 1014.9 |
| 20260510164548 | 45 | 326 | 11.0 | 20.0 | 0.00 | 0.08 | 0.00 | 59 | 1014.7 |
| 20260510163038 | 45 | 257 | 9.0 | 19.0 | 0.00 | 0.08 | 0.00 | 61 | 1014.7 |
| 20260510161537 | 44 | 288 | 7.0 | 21.0 | 0.00 | 0.08 | 0.00 | 63 | 1014.6 |
| 20260510160036 | 45 | 289 | 11.0 | 23.0 | 0.00 | 0.08 | 0.00 | 61 | 1014.6 |
| 20260510154547 | 45 | 317 | 11.0 | 22.0 | 0.00 | 0.08 | 0.00 | 59 | 1014.5 |
| 20260510153038 | 44 | 321 | 13.0 | 20.0 | 0.00 | 0.08 | 0.00 | 64 | 1014.3 |
| 20260510151542 | 44 | 323 | 13.0 | 23.0 | 0.00 | 0.08 | 0.00 | 62 | 1014.0 |
| 20260510150043 | 44 | 316 | 12.0 | 20.0 | 0.00 | 0.08 | 0.00 | 62 | 1013.8 |
| 20260510144550 | 43 | 324 | 12.0 | 22.0 | 0.00 | 0.08 | 0.00 | 66 | 1013.5 |
| 20260510143054 | 43 | 283 | 10.0 | 20.0 | 0.00 | 0.08 | 0.00 | 66 | 1013.4 |
| 20260510141537 | 42 | 329 | 13.0 | 20.0 | 0.00 | 0.08 | 0.00 | 71 | 1013.2 |
| 20260510140042 | 42 | 320 | 8.0 | 21.0 | 0.00 | 0.08 | 0.00 | 69 | 1013.1 |
| 20260510134538 | 41 | 348 | 11.0 | 21.0 | 0.00 | 0.08 | 0.00 | 69 | 1013.1 |
| 20260510133037 | 40 | 313 | 9.0 | 18.0 | 0.00 | 0.08 | 0.00 | 73 | 1012.8 |
| 20260510131548 | 39 | 309 | 10.0 | 19.0 | 0.00 | 0.08 | 0.00 | 76 | 1012.8 |
| 20260510130043 | 39 | 323 | 11.0 | 19.0 | 0.00 | 0.08 | 0.00 | 78 | 1012.5 |
| 20260510124540 | 39 | 286 | 6.0 | 17.0 | 0.00 | 0.08 | 0.00 | 79 | 1012.3 |
| 20260510123038 | 38 | 265 | 8.0 | 18.0 | 0.00 | 0.08 | 0.00 | 78 | 1012.2 |
| 20260510121539 | 37 | 275 | 6.0 | 20.0 | 0.00 | 0.08 | 0.00 | 80 | 1012.1 |
| 20260510120044 | 36 | 268 | 7.0 | 15.0 | 0.00 | 0.08 | 0.00 | 79 | 1011.8 |
| 20260510114542 | 36 | 274 | 5.0 | 16.0 | 0.00 | 0.08 | 0.00 | 80 | 1011.5 |
| 20260510113040 | 35 | 269 | 6.0 | 14.0 | 0.00 | 0.08 | 0.00 | 82 | 1011.4 |
| 20260510111539 | 35 | 299 | 5.0 | 12.0 | 0.00 | 0.08 | 0.00 | 83 | 1011.1 |
| 20260510110038 | 34 | 273 | 6.0 | 13.0 | 0.00 | 0.08 | 0.00 | 84 | 1010.9 |
| 20260510104538 | 34 | 285 | 9.0 | 14.0 | 0.00 | 0.08 | 0.00 | 84 | 1010.6 |
| 20260510103037 | 34 | 282 | 7.0 | 16.0 | 0.00 | 0.08 | 0.00 | 84 | 1010.0 |
| 20260510101537 | 34 | 275 | 6.0 | 12.0 | 0.00 | 0.08 | 0.00 | 85 | 1009.7 |
| 20260510100040 | 34 | 314 | 4.0 | 13.0 | 0.00 | 0.08 | 0.00 | 84 | 1009.3 |
| 20260510094539 | 34 | 302 | 5.0 | 12.0 | 0.00 | 0.08 | 0.00 | 84 | 1009.1 |
| 20260510093038 | 34 | 319 | 7.0 | 13.0 | 0.00 | 0.08 | 0.00 | 84 | 1009.0 |
| 20260510091545 | 34 | 289 | 7.0 | 18.0 | 0.00 | 0.08 | 0.00 | 83 | 1008.8 |
| 20260510090053 | 35 | 322 | 9.0 | 16.0 | 0.00 | 0.08 | 0.00 | 82 | 1008.6 |
| 20260510084543 | 35 | 287 | 9.0 | 17.0 | 0.00 | 0.08 | 0.00 | 81 | 1008.6 |
| 20260510083038 | 35 | 274 | 6.0 | 16.0 | 0.00 | 0.08 | 0.00 | 82 | 1008.3 |
| 20260510081538 | 35 | 291 | 6.0 | 14.0 | 0.00 | 0.08 | 0.00 | 81 | 1008.2 |
| 20260510080045 | 35 | 286 | 4.0 | 13.0 | 0.00 | 0.08 | 0.00 | 82 | 1008.2 |
| 20260510074547 | 35 | 290 | 5.0 | 12.0 | 0.00 | 0.08 | 0.00 | 83 | 1008.2 |
| 20260510073103 | 35 | 298 | 5.0 | 12.0 | 0.00 | 0.08 | 0.00 | 82 | 1008.0 |
| 20260510071543 | 35 | 277 | 6.0 | 11.0 | 0.00 | 0.08 | 0.00 | 82 | 1007.9 |
| 20260510070042 | 36 | 272 | 4.0 | 12.0 | 0.00 | 0.08 | 0.00 | 81 | 1007.8 |
| 20260510064554 | 36 | 321 | 6.0 | 16.0 | 0.00 | 0.08 | 0.00 | 80 | 1007.7 |
| 20260510063038 | 36 | 321 | 8.0 | 14.0 | 0.00 | 0.08 | 0.00 | 81 | 1007.6 |
| 20260510061537 | 36 | 271 | 7.0 | 15.0 | 0.00 | 0.08 | 0.00 | 81 | 1007.4 |
| 20260510060038 | 37 | 281 | 8.0 | 16.0 | 0.00 | 0.08 | 0.00 | 80 | 1007.6 |
| 20260510054544 | 37 | 292 | 6.0 | 12.0 | 0.00 | 0.08 | 0.00 | 80 | 1007.3 |
| 20260510053045 | 38 | 284 | 7.0 | 13.0 | 0.00 | 0.08 | 0.00 | 79 | 1007.2 |
| 20260510051548 | 38 | 303 | 6.0 | 15.0 | 0.00 | 0.08 | 0.00 | 78 | 1007.0 |
| 20260510050037 | 39 | 301 | 8.0 | 15.0 | 0.00 | 0.08 | 0.00 | 78 | 1007.0 |
| 20260510044537 | 40 | 286 | 7.0 | 17.0 | 0.00 | 0.08 | 0.00 | 74 | 1006.6 |
| 20260510043044 | 40 | 313 | 4.0 | 13.0 | 0.00 | 0.08 | 0.00 | 74 | 1006.6 |
| 20260510041542 | 41 | 288 | 5.0 | 11.0 | 0.00 | 0.08 | 0.00 | 73 | 1006.4 |
| 20260510040045 | 41 | 76 | 4.0 | 8.0 | 0.00 | 0.08 | 0.00 | 72 | 1006.3 |
| 20260510034549 | 42 | 325 | 3.0 | 10.0 | 0.00 | 0.08 | 0.08 | 71 | 1006.1 |
| 20260510033040 | 42 | 280 | 4.0 | 9.0 | 0.00 | 0.08 | 0.08 | 70 | 1006.0 |
| 20260510031544 | 43 | 297 | 4.0 | 8.0 | 0.00 | 0.08 | 0.08 | 71 | 1005.6 |
| 20260510030042 | 43 | 278 | 3.0 | 9.0 | 0.00 | 0.08 | 0.08 | 73 | 1005.9 |
| 20260510024542 | 43 | 294 | 4.0 | 10.0 | 0.00 | 0.08 | 0.08 | 72 | 1005.7 |
| 20260510023038 | 43 | 262 | 4.0 | 9.0 | 0.00 | 0.08 | 0.08 | 74 | 1005.7 |
| 20260510021538 | 44 | 262 | 3.0 | 13.0 | 0.00 | 0.08 | 0.08 | 74 | 1005.6 |
| 20260510020044 | 44 | 330 | 7.0 | 11.0 | 0.00 | 0.08 | 0.08 | 72 | 1005.4 |
| 20260510014538 | 44 | 318 | 5.0 | 10.0 | 0.00 | 0.08 | 0.08 | 74 | 1005.1 |
| 20260510013037 | 45 | 319 | 4.0 | 12.0 | 0.00 | 0.08 | 0.08 | 74 | 1004.6 |
| 20260510011541 | 45 | 327 | 6.0 | 13.0 | 0.00 | 0.08 | 0.08 | 76 | 1004.0 |
| 20260510010044 | 46 | 329 | 10.0 | 14.0 | 0.00 | 0.08 | 0.08 | 75 | 1003.7 |
| 20260510004540 | 46 | 312 | 8.0 | 14.0 | 0.00 | 0.08 | 0.08 | 79 | 1003.6 |
| 20260510003046 | 47 | 317 | 11.0 | 19.0 | 0.00 | 0.08 | 0.08 | 76 | 1003.4 |
| 20260510001543 | 49 | 329 | 15.0 | 20.0 | 0.00 | 0.08 | 0.08 | 76 | 1002.9 |
| 20260510000046 | 51 | 313 | 7.0 | 13.0 | 0.00 | 0.08 | 0.08 | 76 | 1002.8 |
| 20260509234541 | 51 | 267 | 7.0 | 21.0 | 0.00 | 0.08 | 0.08 | 78 | 1002.4 |
| 20260509233038 | 51 | 278 | 9.0 | 15.0 | 0.00 | 0.08 | 0.08 | 83 | 1002.2 |
| 20260509231538 | 51 | 261 | 8.0 | 11.0 | 0.00 | 0.08 | 0.08 | 87 | 1001.9 |
| 20260509230038 | 50 | 269 | 7.0 | 14.0 | 0.00 | 0.08 | 0.08 | 89 | 1001.8 |
| 20260509224534 | 50 | 245 | 8.0 | 13.0 | 0.00 | 0.08 | 0.08 | 89 | 1001.5 |
| 20260509223045 | 50 | 242 | 5.0 | 10.0 | 0.00 | 0.08 | 0.08 | 91 | 1001.2 |
| 20260509221543 | 50 | 253 | 5.0 | 14.0 | 0.00 | 0.08 | 0.08 | 90 | 1001.1 |
| 20260509220043 | 50 | 252 | 6.0 | 14.0 | 0.05 | 0.08 | 0.08 | 90 | 1001.0 |
| 20260509214605 | 49 | 267 | 5.0 | 11.0 | 0.06 | 0.08 | 0.08 | 91 | 1001.0 |
| 20260509213038 | 47 | 272 | 5.0 | 9.0 | 0.08 | 0.08 | 0.08 | 93 | 1001.4 |
| 20260509211538 | 46 | 278 | 6.0 | 13.0 | 0.08 | 0.08 | 0.08 | 94 | 1001.5 |
| 20260509210045 | 46 | 242 | 11.0 | 25.0 | 0.03 | 0.03 | 0.03 | 92 | 1001.9 |
| 20260509204542 | 51 | 284 | 17.0 | 25.0 | 0.02 | 0.02 | 0.02 | 83 | 1001.7 |
| 20260509203042 | 54 | 240 | 9.0 | 20.0 | 0.00 | 0.00 | 0.00 | 73 | 1000.5 |
| 20260509201538 | 55 | 228 | 13.0 | 25.0 | 0.00 | 0.00 | 0.00 | 66 | 999.6 |
| 20260509200045 | 55 | 213 | 21.0 | 32.0 | 0.00 | 0.00 | 0.00 | 64 | 1000.0 |
| 20260509194550 | 58 | 210 | 18.0 | 33.0 | 0.00 | 0.00 | 0.00 | 57 | 1000.1 |
| 20260509193043 | 59 | 243 | 18.0 | 24.0 | 0.00 | 0.00 | 0.00 | 57 | 1000.0 |
| 20260509191544 | 60 | 215 | 12.0 | 33.0 | 0.00 | 0.00 | 0.00 | 59 | 1000.1 |
| 20260509190037 | 59 | 218 | 23.0 | 34.0 | 0.00 | 0.00 | 0.00 | 61 | 1000.5 |
| 20260509184545 | 58 | 254 | 21.0 | 29.0 | 0.00 | 0.00 | 0.00 | 62 | 1000.6 |
| 20260509183058 | 59 | 217 | 13.0 | 24.0 | 0.00 | 0.00 | 0.00 | 62 | 1000.6 |
| 20260509181541 | 58 | 229 | 14.0 | 27.0 | 0.00 | 0.00 | 0.00 | 62 | 1000.8 |
| 20260509180041 | 58 | 217 | 12.0 | 27.0 | 0.00 | 0.00 | 0.00 | 66 | 1001.2 |